Flag for Germany Weather past 2 weeks in Pfaffenhofen an der Ilm, Bavaria, Germany

Now
55 °F

Cool.


Feels Like: 55 °F
Forecast: 54 / 77 °F
Wind: 1 mph from Southwest

Location: Ingolstadt Airport

Current Time: Jul 31, 2015 at 3:54:08 AM

Latest Report: Jul 31, 2015 at 3:20 AM


Visibility: N/A

Pressure: 30.07 "Hg

Humidity: 72%

Dew point: 46 °F

Location of Pfaffenhofen an der IlmLocation

Historic Weather in Pfaffenhofen an der Ilm — Graph

°F

Pfaffenhofen an der Ilm temperature yesterday

Maximum temperature yesterday: 70 °F (at 4:20 PM)
Minimum temperature yesterday: 46 °F (at 4:20 AM)
Average temperature yesterday: 60 °F

Past Weeks' High & Low Weather Summary

 TemperatureHumidityPressure
High97 °F (Jul 22, 4:20 PM)100% (Jul 30, 4:20 AM)30.12 "Hg (Jul 30, 4:20 AM)
Low46 °F (Jul 30, 4:20 AM)20% (Jul 17, 4:20 PM)29.71 "Hg (Jul 25, 12:20 AM)
Average71 °F60%29.95 "Hg
* Reported Jul 16 2:20 AM — Jul 31 2:20 AM, Pfaffenhofen an der Ilm, Weather by CustomWeather, © 2015

Note: Actual official high and low records may vary slightly from our data, if they occured in-between our weather recording intervals... More about our weather records

Advertising

Pfaffenhofen an der Ilm weather history for previous 24 hours

 ConditionsComfort  
Time TempWeatherWind HumidityBarometerVisibility
2:20 AM
Fri, Jul 31
55 °FCool.2 mph67%30.07 "HgN/A
1:20 AM55 °FCool.2 mph72%30.07 "HgN/A
12:20 AM57 °FCool.2 mph63%30.04 "HgN/A
11:20 PM
Thu, Jul 30
59 °FRefreshingly cool.2 mph59%30.04 "HgN/A
10:20 PM63 °FMild.2 mph49%30.04 "HgN/A
9:20 PM64 °FMild.5 mph43%30.01 "HgN/A
8:20 PM66 °FPartly sunny.6 mph37%30.01 "HgN/A
7:20 PM68 °FPassing clouds.8 mph35%29.98 "HgN/A
6:20 PM70 °FPassing clouds.6 mph35%29.98 "HgN/A
6:00 PM70 °FPassing clouds.9 mph35%29.98 "HgN/A
5:20 PM70 °FPassing clouds.9 mph33%29.98 "HgN/A
4:20 PM70 °FPassing clouds.12 mph35%29.98 "HgN/A
3:20 PM68 °FPassing clouds.12 mph38%29.98 "HgN/A
2:20 PM68 °FPassing clouds.6 mph35%29.98 "HgN/A
1:20 PM68 °FPassing clouds.10 mph30%30.01 "HgN/A
12:20 PM66 °FScattered clouds.10 mph40%30.01 "HgN/A
11:20 AM64 °FPassing clouds.9 mph43%30.01 "HgN/A
10:20 AM63 °FPassing clouds.6 mph56%30.01 "HgN/A
9:20 AM59 °FPassing clouds.7 mph68%30.01 "HgN/A
8:20 AM55 °FPassing clouds.5 mph77%30.01 "HgN/A
7:20 AM52 °FPassing clouds.2 mph88%30.01 "HgN/A
6:20 AM46 °FFog.1 mph93%30.01 "HgN/A
5:20 AM46 °FFog.2 mph100%29.98 "HgN/A
4:20 AM46 °FCool.3 mph100%29.98 "Hg1 mi
3:20 AM48 °FCool.1 mph94%29.98 "Hg1 mi
Weather by CustomWeather, © 2015

See weather overviewHow to use our weather pages